• In Latvia
  • List of Countries
  • For 7 days
  • Water Temperature
  • Satellite Maps
  • Weather Map
  • Weather Widgets
  • user-avatar
    Login

    Hourly Weather Ali Bayramli

    Today, 30 April, Sunday

    Time Temperature Precipitation Wind Pressure Humidity
    00:00 +14°C° 0 mm 1 mps 762 mmHg 68%
    01:00 +13°C° 0 mm 1 mps 761 mmHg 70%
    02:00 +13°C° 0 mm 1 mps 761 mmHg 71%
    03:00 +13°C° 0 mm 1 mps 761 mmHg 73%
    04:00 +13°C° 0 mm 1 mps 761 mmHg 70%
    05:00 +14°C° 0 mm 1 mps 761 mmHg 68%
    06:00 +15°C° 0 mm 2 mps 761 mmHg 66%
    07:00 +16°C° 0 mm 2 mps 761 mmHg 60%
    08:00 +18°C° 0 mm 2 mps 761 mmHg 55%
    09:00 +20°C° 0 mm 3 mps 761 mmHg 49%
    10:00 +23°C° 0 mm 2 mps 760 mmHg 46%
    11:00 +24°C° 0 mm 2 mps 760 mmHg 43%
    12:00 +25°C° 0 mm 2 mps 760 mmHg 40%
    13:00 +26°C° 0 mm 2 mps 760 mmHg 39%
    14:00 +27°C° 0 mm 2 mps 759 mmHg 37%
    15:00 +27°C° 0 mm 3 mps 759 mmHg 36%
    16:00 +26°C° 0 mm 3 mps 759 mmHg 40%
    17:00 +24°C° 0 mm 3 mps 759 mmHg 44%
    18:00 +22°C° 0 mm 4 mps 759 mmHg 48%
    19:00 +20°C° 0 mm 3 mps 759 mmHg 52%
    20:00 +19°C° 0 mm 2 mps 759 mmHg 56%
    21:00 +17°C° 0 mm 2 mps 759 mmHg 61%
    22:00 +18°C° 0 mm 1 mps 759 mmHg 62%
    23:00 +16°C° 0 mm 1 mps 759 mmHg 62%

    Tomorrow, 1 May, Monday

    Time Temperature Precipitation Wind Pressure Humidity
    00:00 +16°C° 0 mm 1 mps 759 mmHg 63%
    01:00 +16°C° 0 mm 1 mps 759 mmHg 64%
    02:00 +15°C° 0 mm 1 mps 759 mmHg 65%
    03:00 +15°C° 0 mm 1 mps 759 mmHg 66%
    04:00 +16°C° 0 mm 1 mps 759 mmHg 64%
    05:00 +18°C° 0 mm 1 mps 759 mmHg 62%
    06:00 +19°C° 0 mm 1 mps 759 mmHg 61%
    07:00 +21°C° 0 mm 1 mps 759 mmHg 55%
    08:00 +23°C° 0 mm 1 mps 760 mmHg 49%
    09:00 +25°C° 0 mm 1 mps 760 mmHg 43%
    10:00 +26°C° 0 mm 2 mps 760 mmHg 40%
    11:00 +27°C° 0 mm 2 mps 759 mmHg 36%
    12:00 +29°C° 0 mm 2 mps 759 mmHg 33%
    13:00 +29°C° 0 mm 3 mps 759 mmHg 32%
    14:00 +29°C° 0 mm 3 mps 759 mmHg 32%
    15:00 +30°C° 0 mm 4 mps 758 mmHg 31%
    16:00 +28°C° 0 mm 4 mps 758 mmHg 35%
    17:00 +26°C° 0 mm 4 mps 758 mmHg 39%
    18:00 +23°C° 0 mm 4 mps 758 mmHg 43%
    19:00 +22°C° 0 mm 3 mps 759 mmHg 45%
    20:00 +20°C° 0 mm 3 mps 759 mmHg 47%
    21:00 +19°C° 0 mm 2 mps 760 mmHg 49%
    22:00 +18°C° 0 mm 2 mps 760 mmHg 49%
    23:00 +18°C° 0 mm 2 mps 760 mmHg 48%

    Day after tomorrow, 2 May, Tuesday

    Time Temperature Precipitation Wind Pressure Humidity
    00:00 +19°C° 0 mm 1 mps 759 mmHg 48%
    01:00 +18°C° 0 mm 1 mps 759 mmHg 48%
    02:00 +18°C° 0 mm 1 mps 759 mmHg 48%
    03:00 +18°C° 0 mm 1 mps 759 mmHg 47%
    04:00 +18°C° 0 mm 1 mps 759 mmHg 47%
    05:00 +19°C° 0 mm 1 mps 759 mmHg 46%
    06:00 +20°C° 0 mm 1 mps 759 mmHg 46%
    07:00 +22°C° 0 mm 1 mps 759 mmHg 41%
    08:00 +23°C° 0 mm 1 mps 759 mmHg 35%
    09:00 +25°C° 0 mm 1 mps 759 mmHg 30%
    10:00 +27°C° 0 mm 2 mps 759 mmHg 28%
    11:00 +28°C° 0 mm 2 mps 759 mmHg 25%
    12:00 +29°C° 0 mm 3 mps 759 mmHg 23%
    13:00 +29°C° 0 mm 4 mps 758 mmHg 23%
    14:00 +29°C° 0 mm 4 mps 758 mmHg 23%
    15:00 +29°C° 0 mm 5 mps 758 mmHg 23%
    16:00 +28°C° 0 mm 4 mps 758 mmHg 27%
    17:00 +26°C° 0 mm 4 mps 757 mmHg 30%
    18:00 +24°C° 0 mm 3 mps 757 mmHg 33%
    19:00 +22°C° 0 mm 3 mps 758 mmHg 34%
    20:00 +21°C° 0 mm 2 mps 758 mmHg 35%
    21:00 +21°C° 0 mm 1 mps 758 mmHg 36%
    22:00 +21°C° 0 mm 1 mps 758 mmHg 37%
    23:00 +21°C° 0 mm 1 mps 758 mmHg 38%

    3 May, Wednesday

    Time Temperature Precipitation Wind Pressure Humidity
    00:00 +21°C° 0 mm 1 mps 757 mmHg 38%
    01:00 +20°C° 0 mm 1 mps 757 mmHg 40%
    02:00 +20°C° 0 mm 1 mps 757 mmHg 41%
    03:00 +20°C° 0 mm 1 mps 756 mmHg 43%
    04:00 +20°C° 0 mm 1 mps 756 mmHg 44%
    05:00 +21°C° 0 mm 1 mps 756 mmHg 45%
    06:00 +19°C° 0 mm 0 mps 757 mmHg 46%
    07:00 +23°C° 0 mm 1 mps 757 mmHg 41%
    08:00 +24°C° 0 mm 1 mps 757 mmHg 36%
    09:00 +26°C° 0 mm 1 mps 757 mmHg 32%
    10:00 +27°C° 0 mm 1 mps 756 mmHg 31%
    11:00 +29°C° 0 mm 1 mps 756 mmHg 30%
    12:00 +30°C° 0 mm 2 mps 755 mmHg 29%
    13:00 +30°C° 0 mm 2 mps 755 mmHg 29%
    14:00 +30°C° 0 mm 2 mps 755 mmHg 29%
    15:00 +30°C° 0 mm 3 mps 754 mmHg 29%
    16:00 +29°C° 0.1 mm 3 mps 754 mmHg 33%
    17:00 +27°C° 0.1 mm 3 mps 754 mmHg 37%
    18:00 +26°C° 0.1 mm 3 mps 754 mmHg 41%
    19:00 +25°C° 0.1 mm 2 mps 755 mmHg 44%
    20:00 +23°C° 0.1 mm 2 mps 755 mmHg 48%
    21:00 +21°C° 0.1 mm 2 mps 755 mmHg 51%
    22:00 +20°C° 0 mm 2 mps 755 mmHg 52%
    23:00 +21°C° 0 mm 1 mps 755 mmHg 52%

    4 May, Thursday

    Time Temperature Precipitation Wind Pressure Humidity
    00:00 +21°C° 0 mm 1 mps 755 mmHg 53%
    01:00 +20°C° 0 mm 1 mps 755 mmHg 53%
    02:00 +19°C° 0 mm 2 mps 755 mmHg 54%
    03:00 +19°C° 0 mm 2 mps 755 mmHg 54%
    04:00 +19°C° 0 mm 2 mps 755 mmHg 54%
    05:00 +19°C° 0 mm 2 mps 755 mmHg 55%
    06:00 +19°C° 0 mm 2 mps 756 mmHg 55%
    07:00 +21°C° 0 mm 2 mps 756 mmHg 50%
    08:00 +24°C° 0 mm 2 mps 756 mmHg 45%
    09:00 +25°C° 0 mm 1 mps 756 mmHg 40%
    10:00 +27°C° 0 mm 2 mps 756 mmHg 38%
    11:00 +28°C° 0 mm 2 mps 756 mmHg 36%
    12:00 +29°C° 0 mm 2 mps 756 mmHg 33%
    13:00 +29°C° 0 mm 3 mps 756 mmHg 36%
    14:00 +29°C° 0 mm 5 mps 755 mmHg 38%
    15:00 +28°C° 0 mm 6 mps 755 mmHg 41%
    16:00 +27°C° 0 mm 6 mps 756 mmHg 46%
    17:00 +26°C° 0 mm 5 mps 756 mmHg 50%
    18:00 +23°C° 0 mm 5 mps 756 mmHg 55%
    19:00 +22°C° 0 mm 5 mps 756 mmHg 59%
    20:00 +21°C° 0 mm 4 mps 757 mmHg 63%
    21:00 +20°C° 0 mm 3 mps 757 mmHg 67%
    22:00 +19°C° 0 mm 3 mps 757 mmHg 69%
    23:00 +18°C° 0 mm 2 mps 757 mmHg 71%

    5 May, Friday

    Time Temperature Precipitation Wind Pressure Humidity
    00:00 +18°C° 0 mm 2 mps 757 mmHg 73%
    01:00 +17°C° 0 mm 2 mps 757 mmHg 75%
    02:00 +18°C° 0 mm 1 mps 757 mmHg 76%
    03:00 +18°C° 0 mm 1 mps 757 mmHg 78%
    04:00 +18°C° 0 mm 1 mps 757 mmHg 76%
    05:00 +19°C° 0 mm 1 mps 758 mmHg 74%
    06:00 +19°C° 0 mm 1 mps 758 mmHg 72%
    07:00 +21°C° 0 mm 1 mps 758 mmHg 65%
    08:00 +23°C° 0 mm 2 mps 758 mmHg 58%
    09:00 +25°C° 0 mm 2 mps 758 mmHg 51%
    10:00 +26°C° 0 mm 2 mps 758 mmHg 47%
    11:00 +27°C° 0 mm 2 mps 757 mmHg 44%
    12:00 +28°C° 0 mm 3 mps 757 mmHg 40%
    13:00 +29°C° 0 mm 3 mps 756 mmHg 40%
    14:00 +29°C° 0 mm 4 mps 756 mmHg 41%
    15:00 +29°C° 0 mm 5 mps 756 mmHg 41%
    16:00 +27°C° 0 mm 5 mps 756 mmHg 45%
    17:00 +25°C° 0 mm 5 mps 756 mmHg 49%
    18:00 +23°C° 0 mm 5 mps 756 mmHg 54%
    19:00 +22°C° 0 mm 4 mps 756 mmHg 56%
    20:00 +21°C° 0 mm 4 mps 756 mmHg 59%
    21:00 +20°C° 0 mm 3 mps 757 mmHg 61%
    22:00 +19°C° 0 mm 3 mps 756 mmHg 63%
    23:00 +19°C° 0 mm 2 mps 756 mmHg 65%
    Show more